| time (UTC) | temp F | wind direction | speed MPH | gust MPH | rain 1hr in | rain 24hr in | rain mn in | humidity % | barometer mb |
| 20260503023048 | 59 | 60 | 0.0 | 0.0 | 0.00 | 0.00 | 0.00 | 41 | 1015.4 |
| 20260503022544 | 59 | 54 | 0.0 | 0.0 | 0.00 | 0.00 | 0.00 | 41 | 1015.4 |
| 20260503022038 | 61 | 28 | 0.0 | 0.0 | 0.00 | 0.00 | 0.00 | 39 | 1015.5 |
| 20260503021536 | 61 | 323 | 0.0 | 0.0 | 0.00 | 0.00 | 0.00 | 39 | 1015.3 |
| 20260503021032 | 62 | 323 | 0.0 | 0.0 | 0.00 | 0.00 | 0.00 | 38 | 1015.5 |
| 20260503020530 | 62 | 323 | 0.0 | 0.0 | 0.00 | 0.00 | 0.00 | 38 | 1015.3 |
| 20260503020026 | 62 | 323 | 0.0 | 0.0 | 0.00 | 0.00 | 0.00 | 37 | 1015.6 |
| 20260503015523 | 63 | 322 | 0.0 | 0.0 | 0.00 | 0.00 | 0.00 | 36 | 1015.5 |
| 20260503015020 | 64 | 322 | 0.0 | 0.0 | 0.00 | 0.00 | 0.00 | 35 | 1015.4 |
| 20260503014516 | 64 | 323 | 0.0 | 0.0 | 0.00 | 0.00 | 0.00 | 35 | 1015.5 |
| 20260503014015 | 65 | 319 | 0.0 | 0.0 | 0.00 | 0.00 | 0.00 | 35 | 1015.2 |
| 20260503013511 | 65 | 74 | 0.0 | 0.0 | 0.00 | 0.00 | 0.00 | 34 | 1015.3 |
| 20260503013009 | 66 | 340 | 0.0 | 0.0 | 0.00 | 0.00 | 0.00 | 33 | 1015.4 |
| 20260503012506 | 65 | 286 | 0.0 | 0.0 | 0.00 | 0.00 | 0.00 | 34 | 1015.6 |
| 20260503012002 | 66 | 307 | 0.0 | 0.0 | 0.00 | 0.00 | 0.00 | 33 | 1015.4 |
| 20260503011459 | 67 | 284 | 0.0 | 0.0 | 0.00 | 0.00 | 0.00 | 33 | 1015.5 |
| 20260503010956 | 66 | 287 | 1.0 | 2.0 | 0.00 | 0.00 | 0.00 | 33 | 1015.6 |
| 20260503010453 | 67 | 262 | 0.0 | 0.0 | 0.00 | 0.00 | 0.00 | 32 | 1015.7 |
| 20260503005950 | 66 | 121 | 0.0 | 0.0 | 0.00 | 0.00 | 0.00 | 34 | 1015.8 |
| 20260503005447 | 66 | 130 | 0.0 | 0.0 | 0.00 | 0.00 | 0.00 | 33 | 1015.8 |
| 20260503004944 | 66 | 359 | 0.0 | 1.0 | 0.00 | 0.00 | 0.00 | 34 | 1015.9 |
| 20260503004440 | 66 | 27 | 2.0 | 2.0 | 0.00 | 0.00 | 0.00 | 34 | 1015.8 |
| 20260503003938 | 65 | 76 | 3.0 | 3.0 | 0.00 | 0.00 | 0.00 | 35 | 1016.0 |
| 20260503003435 | 65 | 25 | 0.0 | 0.0 | 0.00 | 0.00 | 0.00 | 35 | 1016.0 |
| 20260503002932 | 65 | 137 | 0.0 | 0.0 | 0.00 | 0.00 | 0.00 | 35 | 1015.9 |
| 20260503002429 | 65 | 212 | 0.0 | 0.0 | 0.00 | 0.00 | 0.00 | 34 | 1016.0 |
| 20260503001926 | 65 | 271 | 0.0 | 0.0 | 0.00 | 0.00 | 0.00 | 35 | 1016.2 |
| 20260503001422 | 65 | 254 | 0.0 | 0.0 | 0.00 | 0.00 | 0.00 | 35 | 1016.2 |
| 20260503000920 | 65 | 245 | 3.0 | 3.0 | 0.00 | 0.00 | 0.00 | 35 | 1015.9 |
| 20260503000417 | 65 | 221 | 1.0 | 2.0 | 0.00 | 0.00 | 0.00 | 35 | 1015.9 |
| 20260502235914 | 65 | 245 | 2.0 | 2.0 | 0.00 | 0.00 | 0.00 | 35 | 1016.3 |
| 20260502235411 | 65 | 170 | 3.0 | 3.0 | 0.00 | 0.00 | 0.00 | 34 | 1016.3 |
| 20260502234908 | 65 | 165 | 1.0 | 2.0 | 0.00 | 0.00 | 0.00 | 36 | 1016.3 |
| 20260502234404 | 66 | 227 | 0.0 | 0.0 | 0.00 | 0.00 | 0.00 | 34 | 1016.3 |
| 20260502233902 | 66 | 158 | 4.0 | 5.0 | 0.00 | 0.00 | 0.00 | 34 | 1016.4 |
| 20260502233357 | 66 | 151 | 5.0 | 7.0 | 0.00 | 0.00 | 0.00 | 34 | 1016.3 |
| 20260502232854 | 66 | 203 | 2.0 | 2.0 | 0.00 | 0.00 | 0.00 | 34 | 1016.6 |
| 20260502232351 | 66 | 210 | 1.0 | 1.0 | 0.00 | 0.00 | 0.00 | 35 | 1016.6 |
| 20260502231847 | 66 | 40 | 0.0 | 1.0 | 0.00 | 0.00 | 0.00 | 35 | 1016.7 |
| 20260502231345 | 65 | 256 | 0.0 | 0.0 | 0.00 | 0.00 | 0.00 | 35 | 1016.8 |
| 20260502230843 | 65 | 322 | 2.0 | 2.0 | 0.00 | 0.00 | 0.00 | 35 | 1016.8 |
| 20260502230341 | 64 | 304 | 5.0 | 6.0 | 0.00 | 0.00 | 0.00 | 36 | 1016.8 |
| 20260502225838 | 65 | 11 | 5.0 | 6.0 | 0.00 | 0.00 | 0.00 | 35 | 1016.8 |
| 20260502225334 | 66 | 351 | 1.0 | 1.0 | 0.00 | 0.00 | 0.00 | 35 | 1016.9 |
| 20260502224831 | 66 | 333 | 6.0 | 7.0 | 0.00 | 0.00 | 0.00 | 35 | 1016.8 |
| 20260502224327 | 66 | 326 | 3.0 | 3.0 | 0.00 | 0.00 | 0.00 | 35 | 1016.9 |
| 20260502223825 | 65 | 358 | 4.0 | 5.0 | 0.00 | 0.00 | 0.00 | 35 | 1017.1 |
| 20260502223323 | 66 | 346 | 2.0 | 3.0 | 0.00 | 0.00 | 0.00 | 35 | 1017.1 |
| 20260502222820 | 66 | 224 | 0.0 | 0.0 | 0.00 | 0.00 | 0.00 | 37 | 1017.5 |
| 20260502222317 | 66 | 353 | 5.0 | 6.0 | 0.00 | 0.00 | 0.00 | 35 | 1017.4 |
| 20260502221813 | 65 | 313 | 3.0 | 3.0 | 0.00 | 0.00 | 0.00 | 37 | 1017.5 |
| 20260502221309 | 65 | 359 | 6.0 | 7.0 | 0.00 | 0.00 | 0.00 | 36 | 1017.4 |
| 20260502220807 | 66 | 16 | 3.0 | 3.0 | 0.00 | 0.00 | 0.00 | 36 | 1017.5 |
| 20260502220302 | 65 | 7 | 0.0 | 0.0 | 0.00 | 0.00 | 0.00 | 38 | 1017.6 |
| 20260502215759 | 65 | 327 | 7.0 | 8.0 | 0.00 | 0.00 | 0.00 | 36 | 1017.7 |
| 20260502215257 | 64 | 40 | 3.0 | 3.0 | 0.00 | 0.00 | 0.00 | 37 | 1017.9 |
| 20260502214754 | 65 | 353 | 0.0 | 0.0 | 0.00 | 0.00 | 0.00 | 37 | 1018.0 |
| 20260502214250 | 65 | 299 | 4.0 | 6.0 | 0.00 | 0.00 | 0.00 | 37 | 1017.8 |
| 20260502213748 | 65 | 293 | 0.0 | 2.0 | 0.00 | 0.00 | 0.00 | 37 | 1018.1 |
| 20260502213245 | 65 | 355 | 5.0 | 6.0 | 0.00 | 0.00 | 0.00 | 36 | 1018.0 |
| 20260502212744 | 65 | 279 | 1.0 | 2.0 | 0.00 | 0.00 | 0.00 | 36 | 1018.1 |
| 20260502212242 | 65 | 254 | 0.0 | 0.0 | 0.00 | 0.00 | 0.00 | 37 | 1018.0 |
| 20260502211737 | 64 | 297 | 1.0 | 1.0 | 0.00 | 0.00 | 0.00 | 38 | 1018.4 |
| 20260502211234 | 64 | 308 | 4.0 | 5.0 | 0.00 | 0.00 | 0.00 | 37 | 1018.4 |
| 20260502210731 | 64 | 319 | 8.0 | 9.0 | 0.00 | 0.00 | 0.00 | 38 | 1018.4 |
| 20260502210229 | 65 | 342 | 0.0 | 0.0 | 0.00 | 0.00 | 0.00 | 37 | 1018.4 |
| 20260502205726 | 67 | 280 | 2.0 | 3.0 | 0.00 | 0.00 | 0.00 | 37 | 1018.5 |
| 20260502205222 | 66 | 284 | 5.0 | 6.0 | 0.00 | 0.00 | 0.00 | 38 | 1018.5 |
| 20260502204719 | 66 | 243 | 0.0 | 0.0 | 0.00 | 0.00 | 0.00 | 39 | 1018.5 |
| 20260502204217 | 64 | 280 | 2.0 | 3.0 | 0.00 | 0.00 | 0.00 | 38 | 1018.6 |
| 20260502203714 | 65 | 332 | 7.0 | 8.0 | 0.00 | 0.00 | 0.00 | 37 | 1018.8 |
| 20260502203212 | 65 | 348 | 7.0 | 9.0 | 0.00 | 0.00 | 0.00 | 36 | 1018.8 |
| 20260502202705 | 63 | 54 | 7.0 | 8.0 | 0.00 | 0.00 | 0.00 | 39 | 1018.9 |
| 20260502202204 | 64 | 301 | 0.0 | 0.0 | 0.00 | 0.00 | 0.00 | 40 | 1018.8 |
| 20260502201701 | 64 | 65 | 7.0 | 8.0 | 0.00 | 0.00 | 0.00 | 39 | 1018.9 |
| 20260502201158 | 64 | 3 | 8.0 | 9.0 | 0.00 | 0.00 | 0.00 | 38 | 1018.9 |
| 20260502200653 | 63 | 24 | 5.0 | 6.0 | 0.00 | 0.00 | 0.00 | 39 | 1018.9 |
| 20260502200150 | 63 | 55 | 6.0 | 7.0 | 0.00 | 0.00 | 0.00 | 39 | 1019.1 |
| 20260502195649 | 62 | 31 | 4.0 | 6.0 | 0.00 | 0.00 | 0.00 | 41 | 1019.2 |
| 20260502195144 | 62 | 63 | 6.0 | 7.0 | 0.00 | 0.00 | 0.00 | 41 | 1019.2 |
| 20260502194641 | 62 | 43 | 5.0 | 7.0 | 0.00 | 0.00 | 0.00 | 42 | 1019.3 |
| 20260502194138 | 62 | 22 | 7.0 | 10.0 | 0.00 | 0.00 | 0.00 | 41 | 1019.5 |
| 20260502193634 | 62 | 18 | 6.0 | 8.0 | 0.00 | 0.00 | 0.00 | 41 | 1019.6 |
| 20260502193132 | 62 | 23 | 7.0 | 9.0 | 0.00 | 0.00 | 0.00 | 40 | 1019.7 |
| 20260502192627 | 62 | 51 | 8.0 | 10.0 | 0.00 | 0.00 | 0.00 | 40 | 1019.5 |
| 20260502192125 | 62 | 55 | 7.0 | 9.0 | 0.00 | 0.00 | 0.00 | 40 | 1019.3 |
| 20260502191621 | 62 | 11 | 5.0 | 6.0 | 0.00 | 0.00 | 0.00 | 40 | 1019.3 |
| 20260502191119 | 62 | 27 | 8.0 | 10.0 | 0.00 | 0.00 | 0.00 | 40 | 1019.6 |
| 20260502190616 | 62 | 42 | 6.0 | 9.0 | 0.00 | 0.00 | 0.00 | 40 | 1019.5 |
| 20260502190114 | 62 | 50 | 7.0 | 9.0 | 0.00 | 0.00 | 0.00 | 40 | 1019.7 |
| 20260502185608 | 61 | 41 | 6.0 | 7.0 | 0.00 | 0.00 | 0.00 | 41 | 1019.6 |
| 20260502185105 | 61 | 52 | 3.0 | 5.0 | 0.00 | 0.00 | 0.00 | 42 | 1019.7 |
| 20260502184601 | 61 | 20 | 6.0 | 7.0 | 0.00 | 0.00 | 0.00 | 42 | 1019.7 |
| 20260502184057 | 61 | 32 | 3.0 | 5.0 | 0.00 | 0.00 | 0.00 | 42 | 1019.7 |
| 20260502183554 | 61 | 17 | 7.0 | 7.0 | 0.00 | 0.00 | 0.00 | 41 | 1019.7 |
| 20260502183050 | 61 | 69 | 6.0 | 8.0 | 0.00 | 0.00 | 0.00 | 42 | 1019.8 |
| 20260502182545 | 61 | 52 | 7.0 | 10.0 | 0.00 | 0.00 | 0.00 | 41 | 1019.8 |
| 20260502182041 | 62 | 27 | 4.0 | 6.0 | 0.00 | 0.00 | 0.00 | 41 | 1019.9 |
| 20260502181539 | 62 | 22 | 1.0 | 1.0 | 0.00 | 0.00 | 0.00 | 41 | 1019.8 |
| 20260502181038 | 62 | 48 | 2.0 | 5.0 | 0.00 | 0.00 | 0.00 | 40 | 1019.8 |
| 20260502180534 | 63 | 335 | 6.0 | 7.0 | 0.00 | 0.00 | 0.00 | 40 | 1020.0 |
| 20260502170453 | 62 | 56 | 9.0 | 11.0 | 0.00 | 0.00 | 0.00 | 39 | 1020.0 |
| 20260502163930 | 63 | 26 | 9.0 | 10.0 | 0.00 | 0.00 | 0.00 | 38 | 1020.0 |
| 20260502163427 | 63 | 45 | 7.0 | 8.0 | 0.00 | 0.00 | 0.00 | 39 | 1019.9 |
| 20260502162925 | 62 | 21 | 7.0 | 8.0 | 0.00 | 0.00 | 0.00 | 40 | 1020.0 |
| 20260502162421 | 62 | 33 | 9.0 | 9.0 | 0.00 | 0.00 | 0.00 | 40 | 1020.1 |
| 20260502161918 | 63 | 23 | 7.0 | 10.0 | 0.00 | 0.00 | 0.00 | 39 | 1019.9 |
| 20260502161414 | 62 | 24 | 8.0 | 10.0 | 0.00 | 0.00 | 0.00 | 40 | 1020.0 |
| 20260502160913 | 61 | 25 | 8.0 | 10.0 | 0.00 | 0.00 | 0.00 | 40 | 1020.0 |
| 20260502160411 | 62 | 41 | 8.0 | 9.0 | 0.00 | 0.00 | 0.00 | 40 | 1020.0 |
| 20260502151849 | 59 | 26 | 7.0 | 10.0 | 0.00 | 0.00 | 0.00 | 43 | 1019.7 |
| 20260502151345 | 59 | 42 | 5.0 | 6.0 | 0.00 | 0.00 | 0.00 | 43 | 1019.7 |
| 20260502150843 | 59 | 31 | 8.0 | 9.0 | 0.00 | 0.00 | 0.00 | 42 | 1019.6 |
| 20260502150339 | 59 | 44 | 9.0 | 10.0 | 0.00 | 0.00 | 0.00 | 41 | 1019.6 |
| 20260502130727 | 51 | 34 | 7.0 | 8.0 | 0.00 | 0.00 | 0.00 | 52 | 1019.0 |
| 20260502130225 | 51 | 40 | 7.0 | 9.0 | 0.00 | 0.00 | 0.00 | 52 | 1018.8 |
| 20260502123711 | 47 | 14 | 7.0 | 8.0 | 0.00 | 0.00 | 0.00 | 56 | 1018.6 |
| 20260502123208 | 47 | 23 | 7.0 | 8.0 | 0.00 | 0.00 | 0.00 | 57 | 1018.7 |
| 20260502122704 | 47 | 354 | 4.0 | 6.0 | 0.00 | 0.00 | 0.00 | 57 | 1018.6 |
| 20260502122200 | 47 | 14 | 4.0 | 5.0 | 0.00 | 0.00 | 0.00 | 57 | 1018.4 |
| 20260502121659 | 47 | 16 | 5.0 | 7.0 | 0.00 | 0.00 | 0.00 | 57 | 1018.2 |
| 20260502121156 | 48 | 49 | 5.0 | 7.0 | 0.00 | 0.00 | 0.00 | 56 | 1018.1 |
| 20260502120653 | 48 | 50 | 6.0 | 8.0 | 0.00 | 0.00 | 0.00 | 56 | 1018.2 |
| 20260502120149 | 48 | 41 | 7.0 | 9.0 | 0.00 | 0.00 | 0.00 | 55 | 1018.1 |
| 20260502115647 | 48 | 30 | 7.0 | 9.0 | 0.00 | 0.00 | 0.00 | 55 | 1018.2 |
| 20260502115143 | 47 | 32 | 5.0 | 6.0 | 0.00 | 0.00 | 0.00 | 56 | 1018.4 |
| 20260502114639 | 47 | 31 | 3.0 | 5.0 | 0.00 | 0.00 | 0.00 | 56 | 1018.2 |
| 20260502114137 | 48 | 7 | 6.0 | 8.0 | 0.00 | 0.00 | 0.00 | 55 | 1018.1 |
| 20260502113634 | 48 | 357 | 8.0 | 10.0 | 0.00 | 0.00 | 0.00 | 55 | 1018.1 |
| 20260502113132 | 47 | 10 | 6.0 | 8.0 | 0.00 | 0.00 | 0.00 | 54 | 1017.9 |
| 20260502112630 | 48 | 12 | 7.0 | 9.0 | 0.00 | 0.00 | 0.00 | 53 | 1017.9 |
| 20260502112127 | 48 | 359 | 8.0 | 9.0 | 0.00 | 0.00 | 0.00 | 53 | 1017.7 |
| 20260502111625 | 48 | 29 | 7.0 | 8.0 | 0.00 | 0.00 | 0.00 | 53 | 1017.5 |
| 20260502111122 | 48 | 16 | 9.0 | 10.0 | 0.00 | 0.00 | 0.00 | 52 | 1017.6 |
| 20260502110620 | 48 | 30 | 5.0 | 6.0 | 0.00 | 0.00 | 0.00 | 52 | 1017.4 |
| 20260502110117 | 48 | 18 | 6.0 | 7.0 | 0.00 | 0.00 | 0.00 | 52 | 1017.3 |
| 20260502105614 | 49 | 28 | 4.0 | 6.0 | 0.00 | 0.00 | 0.00 | 50 | 1017.4 |
| 20260502105111 | 48 | 21 | 5.0 | 8.0 | 0.00 | 0.00 | 0.00 | 51 | 1017.1 |
| 20260502104608 | 48 | 354 | 3.0 | 3.0 | 0.00 | 0.00 | 0.00 | 51 | 1017.1 |
| 20260502104106 | 47 | 343 | 2.0 | 3.0 | 0.00 | 0.00 | 0.00 | 51 | 1017.0 |
| 20260502103603 | 47 | 2 | 2.0 | 2.0 | 0.00 | 0.00 | 0.00 | 51 | 1016.7 |
| 20260502103101 | 48 | 26 | 2.0 | 2.0 | 0.00 | 0.00 | 0.00 | 51 | 1016.6 |
| 20260502102557 | 48 | 45 | 3.0 | 3.0 | 0.00 | 0.00 | 0.00 | 50 | 1016.9 |
| 20260502102054 | 48 | 36 | 3.0 | 5.0 | 0.00 | 0.00 | 0.00 | 49 | 1016.5 |
| 20260502101552 | 49 | 26 | 3.0 | 3.0 | 0.00 | 0.00 | 0.00 | 48 | 1016.9 |
| 20260502101050 | 50 | 10 | 3.0 | 3.0 | 0.00 | 0.00 | 0.00 | 47 | 1016.7 |
| 20260502100548 | 50 | 7 | 2.0 | 2.0 | 0.00 | 0.00 | 0.00 | 46 | 1016.8 |
| 20260502091523 | 44 | 310 | 0.0 | 0.0 | 0.00 | 0.00 | 0.00 | 48 | 1016.2 |
| 20260502091021 | 44 | 38 | 3.0 | 3.0 | 0.00 | 0.00 | 0.00 | 49 | 1016.2 |
| 20260502090517 | 45 | 30 | 6.0 | 8.0 | 0.00 | 0.00 | 0.00 | 47 | 1016.0 |
| 20260502071412 | 47 | 58 | 2.0 | 2.0 | 0.00 | 0.00 | 0.00 | 44 | 1015.4 |
| 20260502070910 | 46 | 59 | 2.0 | 2.0 | 0.00 | 0.00 | 0.00 | 45 | 1015.3 |
| 20260502070408 | 46 | 71 | 3.0 | 5.0 | 0.00 | 0.00 | 0.00 | 44 | 1015.3 |
| 20260502065906 | 47 | 76 | 2.0 | 2.0 | 0.00 | 0.00 | 0.00 | 44 | 1015.1 |
| 20260502065404 | 47 | 344 | 2.0 | 2.0 | 0.00 | 0.00 | 0.00 | 43 | 1015.4 |
| 20260502064902 | 47 | 356 | 1.0 | 1.0 | 0.00 | 0.00 | 0.00 | 44 | 1015.3 |
| 20260502064400 | 48 | 306 | 0.0 | 0.0 | 0.00 | 0.00 | 0.00 | 43 | 1015.4 |
| 20260502063856 | 50 | 329 | 1.0 | 2.0 | 0.00 | 0.00 | 0.00 | 41 | 1015.3 |
| 20260502063354 | 50 | 324 | 4.0 | 5.0 | 0.00 | 0.00 | 0.00 | 40 | 1015.2 |
| 20260502062851 | 50 | 321 | 3.0 | 3.0 | 0.00 | 0.00 | 0.00 | 41 | 1015.2 |
| 20260502062349 | 51 | 304 | 2.0 | 2.0 | 0.00 | 0.00 | 0.00 | 39 | 1015.2 |
| 20260502061848 | 50 | 308 | 4.0 | 5.0 | 0.00 | 0.00 | 0.00 | 40 | 1015.3 |
| 20260502061345 | 48 | 338 | 3.0 | 3.0 | 0.00 | 0.00 | 0.00 | 40 | 1015.2 |
| 20260502060840 | 47 | 347 | 2.0 | 2.0 | 0.00 | 0.00 | 0.00 | 40 | 1015.3 |
| 20260502060336 | 47 | 348 | 1.0 | 2.0 | 0.00 | 0.00 | 0.00 | 39 | 1015.2 |
| 20260502055833 | 48 | 353 | 2.0 | 2.0 | 0.00 | 0.00 | 0.00 | 38 | 1015.3 |
| 20260502055331 | 48 | 12 | 1.0 | 1.0 | 0.00 | 0.00 | 0.00 | 37 | 1015.3 |
| 20260502054831 | 49 | 3 | 1.0 | 1.0 | 0.00 | 0.00 | 0.00 | 36 | 1015.1 |
| 20260502054328 | 50 | 4 | 1.0 | 1.0 | 0.00 | 0.00 | 0.00 | 36 | 1015.3 |
| 20260502053825 | 49 | 337 | 1.0 | 1.0 | 0.00 | 0.00 | 0.00 | 36 | 1015.2 |
| 20260502053322 | 49 | 40 | 3.0 | 3.0 | 0.00 | 0.00 | 0.00 | 36 | 1014.9 |
| 20260502052820 | 48 | 323 | 0.0 | 0.0 | 0.00 | 0.00 | 0.00 | 37 | 1015.2 |
| 20260502052318 | 49 | 323 | 0.0 | 0.0 | 0.00 | 0.00 | 0.00 | 36 | 1015.2 |
| 20260502051815 | 49 | 322 | 0.0 | 0.0 | 0.00 | 0.00 | 0.00 | 35 | 1015.2 |
| 20260502051314 | 50 | 348 | 1.0 | 1.0 | 0.00 | 0.00 | 0.00 | 34 | 1015.2 |
| 20260502050810 | 50 | 3 | 1.0 | 1.0 | 0.00 | 0.00 | 0.00 | 34 | 1015.2 |
| 20260502050306 | 51 | 354 | 1.0 | 2.0 | 0.00 | 0.00 | 0.00 | 33 | 1015.1 |
| 20260502045803 | 52 | 23 | 1.0 | 1.0 | 0.00 | 0.00 | 0.00 | 33 | 1015.1 |
| 20260502045300 | 53 | 328 | 2.0 | 2.0 | 0.00 | 0.00 | 0.00 | 32 | 1015.2 |
| 20260502044757 | 56 | 32 | 3.0 | 3.0 | 0.00 | 0.00 | 0.00 | 30 | 1015.1 |
| 20260502044253 | 57 | 326 | 5.0 | 7.0 | 0.00 | 0.00 | 0.00 | 30 | 1014.9 |
| 20260502043750 | 57 | 310 | 5.0 | 6.0 | 0.00 | 0.00 | 0.00 | 29 | 1014.8 |
| 20260502043248 | 57 | 317 | 5.0 | 8.0 | 0.00 | 0.00 | 0.00 | 29 | 1014.9 |
| 20260502042747 | 57 | 320 | 6.0 | 7.0 | 0.00 | 0.00 | 0.00 | 29 | 1014.8 |
| 20260502042245 | 56 | 322 | 6.0 | 7.0 | 0.00 | 0.00 | 0.00 | 29 | 1014.9 |
| 20260502041742 | 56 | 326 | 4.0 | 5.0 | 0.00 | 0.00 | 0.00 | 29 | 1014.8 |
| 20260502041240 | 56 | 308 | 6.0 | 7.0 | 0.00 | 0.00 | 0.00 | 28 | 1014.8 |
| 20260502040736 | 57 | 306 | 5.0 | 6.0 | 0.00 | 0.00 | 0.00 | 27 | 1014.7 |
| 20260502040233 | 60 | 305 | 6.0 | 6.0 | 0.00 | 0.00 | 0.00 | 25 | 1014.8 |
| 20260502035729 | 60 | 300 | 5.0 | 6.0 | 0.00 | 0.00 | 0.00 | 24 | 1014.8 |
| 20260502035226 | 60 | 301 | 6.0 | 7.0 | 0.00 | 0.00 | 0.00 | 24 | 1014.8 |
| 20260502034724 | 58 | 296 | 7.0 | 8.0 | 0.00 | 0.00 | 0.00 | 25 | 1014.7 |
| 20260502034222 | 58 | 310 | 7.0 | 7.0 | 0.00 | 0.00 | 0.00 | 25 | 1014.8 |
| 20260502033720 | 58 | 300 | 5.0 | 6.0 | 0.00 | 0.00 | 0.00 | 25 | 1014.7 |
| 20260502033217 | 61 | 319 | 7.0 | 8.0 | 0.00 | 0.00 | 0.00 | 23 | 1014.6 |
| 20260502032713 | 60 | 295 | 8.0 | 8.0 | 0.00 | 0.00 | 0.00 | 23 | 1014.6 |
| 20260502032209 | 60 | 281 | 6.0 | 7.0 | 0.00 | 0.00 | 0.00 | 24 | 1014.5 |
| 20260502031708 | 60 | 270 | 6.0 | 7.0 | 0.00 | 0.00 | 0.00 | 24 | 1014.5 |
| 20260502031205 | 60 | 277 | 7.0 | 7.0 | 0.00 | 0.00 | 0.00 | 23 | 1014.4 |
| 20260502030704 | 60 | 288 | 6.0 | 7.0 | 0.00 | 0.00 | 0.00 | 23 | 1014.4 |
| 20260502030201 | 61 | 289 | 7.0 | 8.0 | 0.00 | 0.00 | 0.00 | 23 | 1014.5 |
| 20260502025658 | 62 | 297 | 6.0 | 7.0 | 0.00 | 0.00 | 0.00 | 22 | 1014.4 |
| 20260502025156 | 62 | 283 | 5.0 | 6.0 | 0.00 | 0.00 | 0.00 | 21 | 1014.4 |
| 20260502024654 | 61 | 285 | 4.0 | 6.0 | 0.00 | 0.00 | 0.00 | 22 | 1014.3 |
| 20260502024152 | 61 | 281 | 5.0 | 7.0 | 0.00 | 0.00 | 0.00 | 21 | 1014.1 |
| 20260502023649 | 62 | 279 | 5.0 | 6.0 | 0.00 | 0.00 | 0.00 | 21 | 1014.3 |